Fallon, NV

11:25 PM PST on December 02, 2016 (GMT -0800)
Fallon Naval Air Station

Weather History for KNFL - January, 2014

Change the Weather History Date:

Friday, January 17, 2014

  Actual Average Record
Temperature  
Mean Temperature 33 °F -  
Max Temperature 51 °F 46 °F 66 °F (2011)
Min Temperature 15 °F 21 °F -12 °F (1949)
Degree Days  
Heating Degree Days 32    
Moisture  
Dew Point 18 °F    
Average Humidity 61    
Maximum Humidity 88    
Minimum Humidity 32    
Precipitation  
Precipitation 0.00 in - - ()
Sea Level Pressure  
Sea Level Pressure 30.25 in    
Wind  
Wind Speed 2 mph (SE)    
Max Wind Speed 7 mph    
Max Gust Speed -    
Visibility 10 miles    
Events      
Averages and records for this station are not official NWS values.
T = Trace of Precipitation, MM = Missing Value Source: NWS Daily Summary

Daily Weather History Graph

Daily Weather History Graph

Search for Another Location

Airport or City:

Trip Planner

Search our weather history database for the weather conditions in past years. The results will help you decide how hot, cold, wet, or windy it might be!

Date:

Astronomy

Jan. 17, 2014 Rise Set
Actual Time 7:12 AM PST 4:57 PM PST
Civil Twilight 6:43 AM PST 5:27 PM PST
Nautical Twilight 6:10 AM PST 6:00 PM PST
Astronomical Twilight 5:37 AM PST 6:32 PM PST
Moon 6:48 PM PST (1/17) 7:43 AM PST (1/17)
Length of Visible Light 10h 44m
Length of Day
9h 45m
Full, 98% of the Moon is Illuminated
Jan 17
Full
Jan 23
Last Quarter
Jan 30
New
Feb 6
First Quarter
Feb 14
Full

Hourly Weather History & Observations

Time (PST) Temp. Windchill Dew Point Humidity Pressure Visibility Wind Dir Wind Speed Gust Speed Precip Events Conditions
12:56 AM 21.0 °F - 14.0 °F 74% 30.28 in 10.0 mi Calm Calm - N/A   Clear
1:56 AM 21.0 °F - 15.1 °F 78% 30.29 in 10.0 mi Calm Calm - N/A   Clear
2:56 AM 21.9 °F - 16.0 °F 78% 30.29 in 10.0 mi Calm Calm - N/A   Clear
3:56 AM 19.9 °F - 14.0 °F 78% 30.28 in 10.0 mi Calm Calm - N/A   Clear
4:56 AM 18.0 °F 11.1 °F 12.9 °F 81% 30.28 in 10.0 mi SSW 4.6 mph - N/A   Clear
5:56 AM 18.0 °F 12.7 °F 12.9 °F 81% 30.27 in 10.0 mi South 3.5 mph - N/A   Clear
6:17 AM 15.1 °F - 10.9 °F 84% 30.40 in 10.0 mi Calm Calm - N/A   Clear
6:56 AM 16.0 °F - 12.9 °F 88% 30.27 in 10.0 mi Calm Calm - N/A   Clear
7:56 AM 21.0 °F - 15.1 °F 78% 30.28 in 10.0 mi Calm Calm - N/A   Clear
8:56 AM 28.9 °F - 19.9 °F 69% 30.29 in 10.0 mi Calm Calm - N/A   Clear
9:56 AM 37.9 °F 35.5 °F 19.9 °F 48% 30.30 in 10.0 mi Variable 3.5 mph - N/A   Clear
10:56 AM 42.1 °F - 21.9 °F 45% 30.28 in 10.0 mi Calm Calm - N/A   Partly Cloudy
11:56 AM 44.1 °F 42.5 °F 19.9 °F 38% 30.25 in 10.0 mi South 3.5 mph - N/A   Partly Cloudy
12:56 PM 46.9 °F - 19.9 °F 34% 30.22 in 10.0 mi Calm Calm - N/A   Partly Cloudy
1:56 PM 48.9 °F - 21.9 °F 35% 30.20 in 10.0 mi Variable 3.5 mph - N/A   Partly Cloudy
2:56 PM 51.1 °F - 21.9 °F 32% 30.19 in 10.0 mi NE 6.9 mph - N/A   Partly Cloudy
3:56 PM 50.0 °F - 21.9 °F 33% 30.19 in 10.0 mi NNE 5.8 mph - N/A   Partly Cloudy
4:56 PM 46.0 °F 43.9 °F 21.9 °F 39% 30.19 in 10.0 mi NE 4.6 mph - N/A   Partly Cloudy
5:56 PM 37.9 °F 34.4 °F 21.0 °F 51% 30.20 in 10.0 mi ENE 4.6 mph - N/A   Partly Cloudy
6:56 PM 33.1 °F 30.0 °F 19.0 °F 56% 30.19 in 10.0 mi South 3.5 mph - N/A   Partly Cloudy
7:56 PM 28.0 °F 24.2 °F 17.1 °F 63% 30.20 in 10.0 mi South 3.5 mph - N/A   Partly Cloudy
8:56 PM 28.9 °F 23.9 °F 18.0 °F 64% 30.21 in 10.0 mi South 4.6 mph - N/A   Partly Cloudy
9:56 PM 28.9 °F 22.8 °F 18.0 °F 64% 30.21 in 10.0 mi SSE 5.8 mph - N/A   Clear
10:56 PM 26.1 °F 21.9 °F 17.1 °F 69% 30.21 in 10.0 mi ESE 3.5 mph - N/A   Clear
11:56 PM 24.1 °F 19.7 °F 16.0 °F 71% 30.21 in 10.0 mi South 3.5 mph - N/A   Clear